Startpagina
METAR-TAF:

METAR-TAF

Vliegvelden :

Nampa, Idaho, Verenigde Staten

breedte: 43-34-53N, lengte: 116-31-23W, hoogte: 773 m

Actueel weer

Dit bericht is 10 minuten geleden gemaakt, om 17:35 UTC
Weinig wind
Temperatuur 2°C
Vochtigheid 64%
Druk 1022 hPa
Zicht: 14.5 km
Onbewolkt

METAR: KMAN 161735Z AUTO 00000KT 9SM CLR 02/M04 A3019 RMK A01

Tijdstip: 10:45 (17:45 UTC)


TAF: ontbreekt

Waarnemingen en weersverwachtingen van meer dan 4000 vliegvelden (METAR en TAF).

De beschikbare stations zijn de gele en rode punten op de kaart.

Ga met uw muis naar het station om de naam te zien.

Klik dan om waarnemingen en weersverwachtingen te zien.

kaart wijzigen: klik op de groene knoppen met een zwart kruis om in te zoomen, op de groene knop met een streepje om uit te zoomen of op de groene pijlen voor aangrenzende kaarten.


METAR-TAF: